EW2082 Weather Reports


Display with metric or nautical units.
time (UTC)temp
F
wind
direction
speed
MPH
gust
MPH
rain 1hr
in
rain 24hr
in
rain mn
in
humidity
%
barometer
mb
20260508081003 61 189 0.0 1.0 0.00 0.00 0.00 89 1014.6
20260508080005 61 53 0.0 0.0 0.00 0.00 0.00 89 1014.9
20260508074003 61 51 0.0 0.0 0.00 0.00 0.00 89 1014.8
20260508073003 61 45 0.0 0.0 0.00 0.00 0.00 90 1014.6
20260508072004 60 45 0.0 0.0 0.00 0.00 0.00 89 1014.6
20260508071005 60 45 0.0 0.0 0.00 0.00 0.00 89 1014.7
20260508070004 61 45 0.0 0.0 0.00 0.00 0.00 89 1014.6
20260508064003 61 45 0.0 0.0 0.00 0.00 0.00 88 1014.6
20260508063005 61 45 0.0 0.0 0.00 0.00 0.00 88 1014.4
20260508062005 62 45 0.0 0.0 0.00 0.00 0.00 87 1014.4
20260508061004 62 45 0.0 0.0 0.00 0.00 0.00 87 1014.4
20260508060004 62 45 0.0 1.0 0.00 0.00 0.00 87 1014.4
20260508055004 62 45 0.0 2.0 0.00 0.00 0.00 87 1014.4
20260508054004 62 41 0.0 2.0 0.00 0.00 0.00 87 1014.6
20260508053004 62 44 0.0 1.0 0.00 0.00 0.00 87 1014.5
20260508052004 62 44 0.0 1.0 0.00 0.00 0.00 86 1014.5
20260508051004 62 45 0.0 3.0 0.00 0.00 0.00 87 1014.5
20260508050005 62 51 0.0 2.0 0.00 0.00 0.00 87 1014.4
20260508045005 62 66 0.0 0.0 0.00 0.00 0.00 86 1014.3
20260508044004 62 66 0.0 2.0 0.00 0.00 0.00 86 1014.2
20260508043005 62 270 0.0 0.0 0.00 0.00 0.00 85 1014.1
20260508042005 62 321 0.0 1.0 0.00 0.00 0.00 85 1014.0
20260508040005 63 223 0.0 3.0 0.00 0.00 0.00 83 1013.7
20260508035004 63 281 0.0 3.0 0.00 0.00 0.00 82 1013.6
20260508033005 64 11 0.0 2.0 0.00 0.00 0.00 78 1013.3
20260508032004 64 279 0.0 2.0 0.00 0.00 0.00 78 1013.2
20260508030005 64 267 0.0 2.0 0.00 0.00 0.00 77 1012.9
20260508025004 64 20 0.0 0.0 0.00 0.00 0.00 78 1012.9
20260508024004 65 351 0.0 4.0 0.00 0.00 0.00 78 1012.8
20260508023004 65 37 0.0 3.0 0.00 0.00 0.00 78 1012.7
20260508021004 67 341 1.0 4.0 0.00 0.00 0.00 72 1012.6
20260508020004 68 286 0.0 4.0 0.00 0.00 0.00 70 1012.6
20260508015004 69 49 0.0 4.0 0.00 0.00 0.00 68 1012.5
20260508014004 69 8 1.0 2.0 0.00 0.00 0.00 68 1012.4
20260508013004 69 330 0.0 3.0 0.00 0.00 0.00 71 1012.4
20260508011005 70 28 3.0 4.0 0.00 0.00 0.00 68 1012.3
20260508010006 70 29 0.0 6.0 0.00 0.00 0.00 67 1012.4
20260508005004 71 345 0.0 7.0 0.00 0.00 0.00 64 1012.3
20260508003005 71 302 3.0 6.0 0.00 0.00 0.00 65 1012.3
20260508002004 72 280 0.0 6.0 0.00 0.00 0.00 65 1012.2
20260508001004 73 344 0.0 4.0 0.00 0.00 0.00 63 1012.3
20260508000004 73 307 2.0 5.0 0.00 0.00 0.00 67 1012.3
20260507235004 72 274 0.0 5.0 0.00 0.00 0.00 68 1012.5
20260507234004 73 304 0.0 4.0 0.00 0.00 0.00 68 1012.4
20260507233004 73 356 1.0 6.0 0.00 0.00 0.00 66 1012.4
20260507232004 74 17 0.0 5.0 0.00 0.00 0.00 65 1012.5
20260507231003 74 294 0.0 4.0 0.00 0.00 0.00 64 1012.5
20260507224004 75 345 1.0 5.0 0.00 0.00 0.00 63 1012.5
20260507223004 75 10 0.0 4.0 0.00 0.00 0.00 62 1012.6
20260507222004 75 253 2.0 5.0 0.00 0.00 0.00 62 1012.7
20260507220006 76 21 0.0 5.0 0.00 0.00 0.00 61 1013.0
20260507215004 76 325 0.0 6.0 0.00 0.00 0.00 59 1013.0
20260507214004 77 4 2.0 5.0 0.00 0.00 0.00 58 1013.2
20260507212004 77 340 1.0 2.0 0.00 0.00 0.00 59 1013.3
20260507211004 76 288 0.0 5.0 0.00 0.00 0.00 62 1013.4
20260507210005 77 300 4.0 4.0 0.00 0.00 0.00 59 1013.6
20260507205004 77 269 0.0 4.0 0.00 0.00 0.00 61 1013.7
20260507203004 78 21 0.0 2.0 0.00 0.00 0.00 58 1013.8
20260507202004 78 293 0.0 2.0 0.00 0.00 0.00 59 1013.7
20260507201003 78 4 0.0 5.0 0.00 0.00 0.00 58 1013.9
20260507200005 79 120 0.0 1.0 0.00 0.00 0.00 58 1014.0
20260507194003 78 143 0.0 0.0 0.00 0.00 0.00 55 1014.4
20260507193004 78 225 0.0 3.0 0.00 0.00 0.00 55 1014.4
20260507192003 78 108 0.0 2.0 0.00 0.00 0.00 56 1014.4
20260507191003 78 165 0.0 3.0 0.00 0.00 0.00 57 1014.6
20260507185003 77 172 0.0 1.0 0.00 0.00 0.00 58 1014.6
20260507184004 77 166 0.0 2.0 0.00 0.00 0.00 58 1014.7
20260507182004 77 79 0.0 2.0 0.00 0.00 0.00 58 1014.6
20260507181003 77 217 0.0 2.0 0.00 0.00 0.00 59 1014.7
20260507180004 76 125 0.0 3.0 0.00 0.00 0.00 60 1014.8
20260507175003 75 195 0.0 2.0 0.00 0.00 0.00 60 1014.7
20260507174003 75 150 0.0 0.0 0.00 0.00 0.00 63 1014.8
20260507173004 75 319 0.0 1.0 0.00 0.00 0.00 61 1014.8
20260507172004 74 162 0.0 2.0 0.00 0.00 0.00 61 1014.9
20260507171005 74 182 0.0 2.0 0.00 0.00 0.00 64 1014.8
20260507170005 74 103 0.0 2.0 0.00 0.00 0.00 63 1014.8
20260507165004 74 224 2.0 3.0 0.00 0.00 0.00 63 1014.9